sat.trackr.live / text

‹ back to catalog

STARLINK-34837

NORAD 65423 · 2025-192V

PAYLOAD ACTIVE UNKNOWN

§ Identity

Operator
Country
US
Launch date
2025-08-31
Launch site
AFETR
Launch vehicle
Mass (kg)
RCS (m²)

Purposes: comms

External: N2YO · Heavens-Above · Gunter

§ Orbital elements

Epoch: 2026-09-20T14:00:37.059264Z

Period
94.01 min
Inclination
53.1592°
Eccentricity
0.0001428
Mean motion
15.31709769 rev/d
Perigee alt
469.7 km
Apogee alt
471.7 km
Semi-major
6,848.8 km
B*
5.3542e-4
RAAN
45.6480°
Arg perigee
85.1522°
Mean anomaly
274.9642°
Rev number
5,924

§ Raw data

STARLINK-348371 65423U 25192V   26263.58376226  .00016291  00000+0  53542-3 0  99972 65423  53.1592  45.6480 0001428  85.1522 274.9642 15.31709769 59244

JSON: /api/v1/satellites/65423 · /tle

For live sub-satellite position, see the globe view (requires WebGL).

§ Visibility from observer

Set your observer location to see the next 7 days of passes ≥ 10°. The values pass through the URL so the page stays shareable.

No JS? Fill the form by hand. The geolocation button needs JavaScript.